Regional Weather Roundup
Issued by NWS

Home | Current Version | Previous Version | Text Only | Print | Product List | Glossary On
Versions: 1 2 3 4 5 6 7 8 9 10 11 12 13 14 15 16 17 18 19 20 21 22 23 24 25 26 27 28 29 30 31 32 33 34 35 36 37 38 39 40 41 42 43 44 45 46 47 48 49 50
000
ASUS43 KMKX 300321
RWRWI

WISCONSIN REGIONAL WEATHER ROUNDUP
NATIONAL WEATHER SERVICE MILWAUKEE/SULLIVAN WI
1000 PM CDT MON AUG 29 2016

NOTE: "FAIR" INDICATES FEW OR NO CLOUDS BELOW 12,000 FEET WITH NO
SIGNIFICANT WEATHER AND/OR OBSTRUCTIONS TO VISIBILITY.

WIZ001-002-006>008-014>016-023>028-300400-
NORTHWEST WISCONSIN

CITY           SKY/WX    TMP DP  RH WIND       PRES   REMARKS
SUPERIOR ARPT  LGT RAIN  69  66  91 W13       30.12R
ASHLAND        CLOUDY    70  66  87 W7        30.13R
HAYWARD        LGT RAIN  68  66  93 N5        30.13F
SIREN          LGT RAIN  69  68  96 CALM      30.16R
CUMBERLAND     CLOUDY    72  68  88 N7        30.18R
RICE LAKE      CLOUDY    72  69  90 SE3       30.17F
CHETEK         NOT AVBL
LADYSMITH      CLOUDY    73  70  91 S3        30.18S
EAU CLAIRE     CLEAR     75  72  90 S6        30.15S
MENOMONIE      MOCLDY    75  71  87 S3        30.16S
NEW RICHMOND   CLOUDY    75  69  80 S5        30.16R
OSCEOLA        LGT RAIN  71  69  94 N16G24    30.22R
$$

WIZ003>005-009-010-017-018-300400-
NORTH CENTRAL WISCONSIN

CITY           SKY/WX    TMP DP  RH WIND       PRES   REMARKS
MANITOWISH WTR NOT AVBL
ARBOR VITAE    CLOUDY    72  68  87 CALM      30.17S
WOODRUFF       CLOUDY    72  68  87 CALM      30.17S
RHINELANDER    CLOUDY    73  71  93 SW6       30.19R
EAGLE RIVER    CLOUDY    70  70 100 CALM      30.17F
LAND O LAKES   CLOUDY    70  66  88 CALM      30.17F
PHILLIPS       CLOUDY    72  70  96 SW3       30.16F
TOMAHAWK       CLOUDY    70  68  93 CALM      30.19S
MEDFORD        CLOUDY    71  71 100 SW3       30.20S
MERRILL        PTCLDY    72  71  99 SW3       30.19S
$$

WIZ029-030-035-036-043>047-300400-
CENTRAL WISCONSIN

CITY           SKY/WX    TMP DP  RH WIND       PRES   REMARKS
WAUSAU         CLEAR     73  69  87 SW7       30.17S
MOSINEE        CLEAR     70  70 100 S7        30.19S
MARSHFIELD     CLEAR     70  67  90 SW5       30.19S
STEVENS POINT  PTCLDY    70  68  94 SW3       30.18F
WAUPACA        CLEAR     72  72  98 CALM      30.18S
WAUTOMA        CLEAR     68  67  96 CALM      30.18S
WISC RAPIDS    CLEAR     70  70 100 SW3       30.19F FOG
CAMP DOUGLAS   CLEAR     68  66  94 CALM      30.18S
$$

WIZ011>013-019>022-031-037>040-048>050-300400-
NORTHEAST WISCONSIN

CITY           SKY/WX    TMP DP  RH WIND       PRES   REMARKS
ANTIGO         MOCLDY    70  68  94 CALM      30.19F
SHAWANO        PTCLDY    76  70  82 CALM      30.16S
OCONTO         NOT AVBL
STURGEON BAY   PTCLDY    70  65  84 S7        30.16S
GREEN BAY      CLEAR     72  71  97 SW5       30.16S
MANITOWOC      PTCLDY    66  63  90 CALM      30.18R
APPLETON       MOCLDY    72  70  94 VRB5      30.16S
CLINTONVILLE   CLEAR     72  70  94 SW5       30.16S
OSHKOSH        CLEAR     73  68  84 SW3       30.17S
$$

WIZ032>034-041-042-053>061-300400-
SOUTHWEST WISCONSIN

CITY           SKY/WX    TMP DP  RH WIND       PRES   REMARKS
LA CROSSE      PTCLDY    75  73  93 E3        30.16S
SPARTA         CLEAR     68  67  98 CALM      30.19F
VIROQUA        PTCLDY    68  68 100 CALM      30.20S
BOSCOBEL       FOG       72  71  97 CALM      30.17S VSB 1/4
PRAIRIE DU CHI PTCLDY    73  71  93 CALM      30.17R
PLATTEVILLE    PTCLDY    72  72 100 SE5       30.19S
$$

WIZ056-057-062-063-064-067-068-300400-
SOUTH CENTRAL WISCONSIN

CITY           SKY/WX    TMP DP  RH WIND       PRES   REMARKS
REEDSBURG      NOT AVBL
BARABOO/DELLS  FOG       69  66  93 CALM      30.18S VSB 1/4
LONE ROCK      CLOUDY    71  69  93 CALM      30.18S
MINERAL POINT  CLEAR     73  72  94 S3        30.20S
MADISON        CLOUDY    72  69  90 CALM      30.17R
MIDDLETON      CLOUDY    72  72  98 W5        30.18R
WATERTOWN      CLEAR     70  70 100 CALM      30.17R
MONROE         PTCLDY    70  68  94 SW6       30.19R
JANESVILLE     NOT AVBL
$$

WIZ051-052-058>065-066-070>072-300400-
SOUTHEAST WISCONSIN

CITY           SKY/WX    TMP DP  RH WIND       PRES   REMARKS
MILWAUKEE      MOCLDY    74  70  87 SE3       30.18R
WAUKESHA       PTCLDY    68  64  88 CALM      30.20R
MILWAUKEE/TIMM CLEAR     72  64  78 CALM      30.19R
RACINE         CLEAR     72  69  90 CALM      30.20R
BURLINGTON     CLEAR     65  65  97 CALM      30.19R
KENOSHA        PTCLDY    71  68  90 CALM      30.19R
FOND DU LAC    CLEAR     70  68  93 CALM      30.18S
SHEBOYGAN      CLOUDY    66  63  90 CALM      30.18S
WEST BEND      CLEAR     68  64  88 CALM      30.19R
JUNEAU         CLEAR     69  67  94 N3        30.19S
$$

LSZ147-162-300400-
LAKE SUPERIOR

STATION/POSITION TIME  TEMP    WIND        PRES    WAVE
                       AIR SEA DIR/SP/G            HT/PER
                 (UTC) (F)     (DEG/KT/KT) (MB)    (FT/S)
W MID LAKE BUOY  0250   70 68  300/  4/  6 1017.9R   0
DEVILS ISLAND    0300   74     180/  8/  9 1018.5F
PORT WING        0305   74     300/ 10     1021.0R
SAXON HARBOR     0220   69     150/  5/ 18 1019.6R
$$

LMZ867-665-643>646-300400-
LAKE MICHIGAN

STATION/POSITION TIME  TEMP    WIND        PRES    WAVE
                       AIR SEA DIR/SP/G            HT/PER
                 (UTC) (F)     (DEG/KT/KT) (MB)    (FT/S)
CHAMBERS ISLAND  0200   74     160/  6/ 10 1020.3S
S GREEN BAY BUOY 0200   75 74  180/ 12/ 14 1020.1F
N MID LAKE BUOY  0250   72 71  210/ 12/ 14 1019.8F   2/ 3
NORTHPORT PIER   0200   73     170/  5/ 10 1020.3F
SISTER BAY       0207   73     190/ 12/ 15   N/A
ALGOMA LAKESHORE 0245          220/  9/ 11   N/A
KEWAUNEE LAKESHO 0300   66     150/  2/  4 1020.8S
SHEBOYGAN LAKESH 0300   69        CALM     1021.3R
PORT WASHINGTON  0240   72     280/  2/  2 1022.4S
ATWATER BUOY     0300   69     170/  6/  6   N/A
MILWAUKEE LAKESH 0310   72     160/  4/  4   N/A
S MID LAKE BUOY  0250   76 77  100/  6/  6 1021.0F   0
KENOSHA   LAKESH 0300   73        CALM     1021.7R
$$

TC  - TEMPERATURE IN CELSIUS
VSB - VISIBILITY IN STATUTE MILES
WCI - WIND CHILL INDEX
HX  - HEAT INDEX





USA.gov is the U.S. government's official web portal to all federal, state and local government web resources and services.